Location: Unspecified
(50.7693°N, 0.0000°E)
Time: 08:52:15
(UTC+00:00)

Tiros 1 - All Passes

Search period start: 16 June 2019 00:00
Search period end: 26 June 2019 00:00
Orbit: 631 x 664 km, 48.4° (Epoch: 15 June)

Date Brightness Start Highest point End Pass type
(mag) Time Alt. Az. Time Alt. Az. Time Alt. Az.
16 Jun - 01:55:39 10° SSW 01:59:42 30° SSE 02:03:44 10° E visible
16 Jun - 03:36:51 10° WSW 03:41:26 61° S 03:46:00 10° E daylight
16 Jun - 05:18:52 10° W 05:23:26 60° S 05:27:59 10° ESE daylight
16 Jun - 07:01:11 10° W 07:05:09 29° SSW 07:09:07 10° SSE daylight
17 Jun - 00:41:07 10° S 00:44:05 17° SE 00:47:03 10° ESE visible
17 Jun - 02:21:06 10° SW 02:25:31 45° SSE 02:29:57 10° E visible
17 Jun - 04:02:50 10° W 04:07:27 67° S 04:12:02 10° E daylight
17 Jun - 05:44:57 10° W 05:49:23 45° SSW 05:53:47 10° SE daylight
17 Jun - 07:27:51 10° WSW 07:30:49 17° SW 07:33:47 10° S daylight
18 Jun - 01:05:45 10° SSW 01:09:45 29° SSE 01:13:44 10° E visible
18 Jun - 02:46:53 10° WSW 02:51:28 60° S 02:56:01 10° E visible
18 Jun - 04:28:53 10° W 04:33:27 61° S 04:38:01 10° ESE daylight
18 Jun - 06:11:10 10° W 06:15:12 30° SSW 06:19:14 10° SSE daylight
18 Jun - 23:51:21 10° S 23:54:10 16° SE 23:56:58 10° ESE visible
19 Jun - 01:31:09 10° SW 01:35:34 43° SSE 01:39:58 10° E visible
19 Jun - 03:12:52 10° W 03:17:29 67° S 03:22:04 10° E daylight
19 Jun - 04:54:58 10° W 04:59:25 47° SSW 05:03:51 10° SE daylight
19 Jun - 06:37:46 10° W 06:40:52 18° SW 06:44:00 10° S daylight
20 Jun - 00:15:52 10° SSW 00:19:48 27° SSE 00:23:43 10° E visible
20 Jun - 01:56:55 10° WSW 02:01:29 58° SSE 02:06:03 10° E visible
20 Jun - 03:38:54 10° W 03:43:30 62° S 03:48:03 10° ESE daylight
20 Jun - 05:21:10 10° W 05:25:15 32° SSW 05:29:20 10° SE daylight
20 Jun - 23:01:35 10° S 23:04:14 15° SE 23:06:51 10° ESE visible
21 Jun - 00:41:12 10° SW 00:45:35 42° SSE 00:49:59 10° E visible
21 Jun - 02:22:52 10° W 02:27:30 66° S 02:32:06 10° E visible
21 Jun - 04:04:58 10° W 04:09:27 49° SSW 04:13:54 10° SE daylight
21 Jun - 05:47:41 10° W 05:50:57 19° SW 05:54:12 10° S daylight
21 Jun - 23:25:58 10° SSW 23:29:52 26° SSE 23:33:43 10° E visible
22 Jun - 01:06:56 10° WSW 01:11:32 57° SSE 01:16:04 10° E visible
22 Jun - 02:48:55 10° W 02:53:31 63° S 02:58:06 10° ESE visible
22 Jun - 04:31:09 10° W 04:35:18 33° SSW 04:39:27 10° SE daylight
22 Jun - 22:11:51 10° S 22:14:17 14° SE 22:16:43 10° ESE visible
22 Jun - 23:51:15 10° SW 23:55:38 40° SSE 00:00:00 10° E visible
23 Jun - 01:32:53 10° WSW 01:37:32 66° S 01:42:07 10° E visible
23 Jun - 03:14:58 10° W 03:19:29 50° SSW 03:23:58 10° ESE daylight
23 Jun - 04:57:37 10° W 05:01:01 20° SW 05:04:23 10° SSE daylight
23 Jun - 22:36:05 10° SSW 22:39:54 25° SSE 22:43:41 10° E visible
24 Jun - 00:16:57 10° WSW 00:21:33 56° SSE 00:26:06 10° E visible
24 Jun - 01:58:55 10° W 02:03:33 64° S 02:08:08 10° ESE visible
24 Jun - 03:41:08 10° W 03:45:22 35° SSW 03:49:32 10° SE daylight
24 Jun - 05:25:31 10° WSW 05:26:33 11° SW 05:27:36 10° SSW daylight
24 Jun - 21:22:10 10° SSE 21:24:21 13° SE 21:26:33 10° ESE visible
24 Jun - 23:01:18 10° SW 23:05:41 39° SSE 23:10:01 10° E visible
25 Jun - 00:42:54 10° WSW 00:47:33 66° S 00:52:09 10° E visible
25 Jun - 02:25:00 10° W 02:29:31 52° SSW 02:34:01 10° ESE visible
25 Jun - 04:07:34 10° W 04:11:05 21° SW 04:14:34 10° SSE daylight
25 Jun - 21:46:13 10° SSW 21:49:57 24° SSE 21:53:41 10° E visible
25 Jun - 23:26:59 10° WSW 23:31:34 54° SSE 23:36:07 10° E visible
